Molokai, HI

8:30 PM HST on March 28, 2017 (GMT -1000)
Molokai

Weather History for PHMK - February, 2014

Change the Weather History Date:

Friday, February 28, 2014

  Actual Average Record
Temperature  
Mean Temperature 69 °F -  
Max Temperature 78 °F 77 °F 84 °F (1958)
Min Temperature 60 °F 63 °F 57 °F (1999)
Cooling Degree Days 4    
Growing Degree Days 19 (Base 50)    
Moisture  
Dew Point 66 °F    
Average Humidity 89    
Maximum Humidity 100    
Minimum Humidity 69    
Precipitation  
Precipitation 0.05 in - - ()
Sea Level Pressure  
Sea Level Pressure 29.96 in    
Wind  
Wind Speed 5 mph (SE)    
Max Wind Speed 16 mph    
Max Gust Speed 20 mph    
Visibility 9 miles    
Events Rain    
Averages and records for this station are not official NWS values.
T = Trace of Precipitation, MM = Missing Value Source: NWS Daily Summary

Daily Weather History Graph

Daily Weather History Graph

Search for Another Location

Airport or City:

Trip Planner

Search our weather history database for the weather conditions in past years. The results will help you decide how hot, cold, wet, or windy it might be!

Date:

Astronomy

Feb. 28, 2014 Rise Set
Actual Time 6:49 AM HST 6:32 PM HST
Civil Twilight 6:27 AM HST 6:54 PM HST
Nautical Twilight 6:01 AM HST 7:20 PM HST
Astronomical Twilight 5:35 AM HST 7:46 PM HST
Moon 6:11 AM HST (2/28) 6:18 PM HST (2/28)
Length of Visible Light 12h 27m
Length of Day
11h 43m
Waning Crescent, 0% of the Moon is Illuminated
Feb 28
Waning Crescent
Feb 28
New
Mar 8
First Quarter
Mar 16
Full
Mar 23
Last Quarter

Hourly Weather History & Observations

Time (HST) Temp. Dew Point Humidity Pressure Visibility Wind Dir Wind Speed Gust Speed Precip Events Conditions
12:54 AM 63.0 °F 61.0 °F 93% 30.00 in 10.0 mi Calm Calm - N/A   Clear
1:54 AM 64.0 °F 62.1 °F 93% 29.98 in 10.0 mi ENE 3.5 mph - N/A   Clear
2:54 AM 63.0 °F 61.0 °F 93% 29.95 in 10.0 mi Calm Calm - N/A   Clear
3:54 AM 60.1 °F 60.1 °F 100% 29.94 in 10.0 mi Calm Calm - N/A   Clear
4:54 AM 61.0 °F 61.0 °F 100% 29.94 in 9.0 mi Calm Calm - N/A   Clear
5:54 AM 64.0 °F 62.1 °F 93% 29.94 in 10.0 mi East 3.5 mph - N/A   Clear
6:54 AM 61.0 °F 60.1 °F 97% 29.96 in 9.0 mi Calm Calm - N/A   Clear
7:54 AM 69.1 °F 64.0 °F 84% 29.98 in 10.0 mi SSE 3.5 mph - N/A   Clear
8:54 AM 73.9 °F 64.9 °F 73% 29.99 in 10.0 mi SE 10.4 mph - N/A   Clear
9:54 AM 77.0 °F 66.0 °F 69% 29.99 in 10.0 mi SE 13.8 mph - N/A   Clear
10:54 AM 77.0 °F 68.0 °F 74% 30.00 in 10.0 mi South 11.5 mph - 0.01 in   Scattered Clouds
11:54 AM 78.1 °F 68.0 °F 71% 29.98 in 8.0 mi SSE 16.1 mph - N/A   Overcast
12:54 PM 73.0 °F 71.1 °F 93% 29.97 in 3.0 mi South 11.5 mph - 0.01 in Rain Light Rain
1:54 PM 75.0 °F 71.1 °F 87% 29.95 in 10.0 mi South 10.4 mph 19.6 mph 0.00 in   Mostly Cloudy
2:04 PM 75.2 °F 69.8 °F 83% 29.93 in 10.0 mi South 13.8 mph 19.6 mph N/A   Mostly Cloudy
2:54 PM 71.1 °F 70.0 °F 96% 29.94 in 10.0 mi SSE 8.1 mph - 0.00 in   Mostly Cloudy
3:54 PM 70.0 °F 69.1 °F 97% 29.92 in 10.0 mi ESE 8.1 mph - 0.00 in   Mostly Cloudy
4:01 PM 69.8 °F 68.0 °F 94% 29.90 in 10.0 mi ESE 9.2 mph - N/A   Overcast
4:54 PM 72.0 °F 66.9 °F 84% 29.91 in 10.0 mi SE 11.5 mph - N/A   Overcast
5:54 PM 73.0 °F 64.9 °F 76% 29.91 in 10.0 mi SE 10.4 mph - N/A   Scattered Clouds
6:54 PM 71.1 °F 66.0 °F 84% 29.93 in 10.0 mi SE 5.8 mph - 0.01 in   Mostly Cloudy
7:54 PM 70.0 °F 68.0 °F 93% 29.94 in 10.0 mi SE 5.8 mph - N/A   Mostly Cloudy
8:54 PM 70.0 °F 68.0 °F 93% 29.95 in 10.0 mi SE 8.1 mph - N/A   Mostly Cloudy
9:54 PM 71.1 °F 68.0 °F 90% 29.97 in 10.0 mi South 4.6 mph - N/A   Overcast
10:36 PM 69.8 °F 69.8 °F 100% 29.97 in 6.0 mi ESE 4.6 mph - 0.00 in Rain Light Rain
10:54 PM 68.0 °F 68.0 °F 100% 29.97 in 5.0 mi East 6.9 mph - 0.02 in Rain Rain
11:23 PM 68.0 °F 68.0 °F 100% 29.97 in 10.0 mi East 4.6 mph - 0.00 in Rain Light Rain
11:54 PM 69.1 °F 68.0 °F 96% 29.97 in 10.0 mi ESE 8.1 mph - 0.00 in   Overcast